Regional Weather Roundup
Issued by NWS

Home | Current Version | Previous Version | Graphics & Text | Print | Product List | Glossary Off
Versions: 1 2 3 4 5 6 7 8 9 10 11 12 13 14 15 16 17 18 19 20 21 22 23 24 25 26 27 28 29 30 31 32 33 34 35 36 37 38 39 40 41 42 43 44 45 46 47 48 49 50

000
ASUS43 KLSX 251759
RWRMO

WEATHER SUMMARY FOR MISSOURI
NATIONAL WEATHER SERVICE SPRINGFIELD MO
100 PM CDT MON MAY 25 2015

NOTE: "FAIR" INDICATES FEW OR NO CLOUDS BELOW 12,000 FEET WITH NO
       SIGNIFICANT WEATHER AND/OR OBSTRUCTIONS TO VISIBILITY.
       CURRENT SKY AND/OR WEATHER CONDITIONS ARE NOT AVAILABLE FOR
       CHILLICOTHE AND FARMINGTON.

MOZ001>031-035>038-043-044-053-054-251900-
...NORTHERN AND WESTERN MISSOURI...

CITY           SKY/WX    TMP DP  RH WIND       PRES   REMARKS
KANSAS CTY INT PTSUNNY   74  64  71 S17G25    29.89R
6HR MIN TEMP:  60; 6HR MAX TEMP:  75; 6HR PCP:  0.04;

KANSAS C DTWN  PTSUNNY   77  63  61 S14       29.89R
6HR MIN TEMP:  62; 6HR MAX TEMP:  78; 6HR PCP: TRACE;

LEE`S SUMMIT   PTSUNNY   74  64  71 S13G22    29.92R
6HR MIN TEMP:  60; 6HR MAX TEMP:  75;

ST JOSEPH      PTSUNNY   76  64  66 S16G31    29.86R
6HR MIN TEMP:  63; 6HR MAX TEMP:  76; 6HR PCP: TRACE;

KIRKSVILLE     SUNNY     73  64  73 S12G21    29.93S
6HR MIN TEMP:  62; 6HR MAX TEMP:  74;


$$
MOZ066>068-077>081-088>096-101>105-251900-
...SOUTHWEST MISSOURI...

CITY           SKY/WX    TMP DP  RH WIND       PRES   REMARKS
SPRINGFIELD    MOSUNNY   78  66  66 S15       29.96F
6HR MIN TEMP:  64; 6HR MAX TEMP:  78;

JOPLIN         PTSUNNY   77  68  73 S14       29.95S
6HR MIN TEMP:  64; 6HR MAX TEMP:  78; 6HR PCP: TRACE;


$$
MOZ032>034-039>042-045>050-055>058-069>072-251900-
...CENTRAL MISSOURI...

CITY           SKY/WX    TMP DP  RH WIND       PRES   REMARKS
COLUMBIA       MOSUNNY   75  65  70 S12G24    29.97S
6HR MIN TEMP:  63; 6HR MAX TEMP:  76;

JEFFERSON CITY MOSUNNY   75  64  68 S6        29.96F
6HR MIN TEMP:  64; 6HR MAX TEMP:  75;

ROLLA          PTSUNNY   76  66  71 S3        29.98F
6HR MIN TEMP:  61; 6HR MAX TEMP:  77;

SEDALIA        PTSUNNY   75  67  76 SE18      29.95F
6HR MIN TEMP:  63; 6HR MAX TEMP:  75;

WHITEMAN AFB   CLOUDY    73  66  78 S12G21    29.93R
OSAGE BEACH    PTSUNNY   79  64  61 S9G17     29.96F

$$
MOZ051-052-059>065-251900-
...EAST CENTRAL MISSOURI...

CITY           SKY/WX    TMP DP  RH WIND       PRES   REMARKS
ST LOUIS INTL  PTSUNNY   82  61  48 SW8G17    30.00F
6HR MIN TEMP:  71; 6HR MAX TEMP:  82;

SPIRIT OF STL  MOSUNNY   80  63  55 S10       29.98F
6HR MIN TEMP:  68; 6HR MAX TEMP:  80;

ST CHARLES     MOSUNNY   79  62  56 S7        29.98F
6HR MIN TEMP:  69; 6HR MAX TEMP:  80;


$$
MOZ072>076-082>087-097>100-106>115-251900-
...SOUTH CENTRAL AND SOUTHEAST MISSOURI...

CITY           SKY/WX    TMP DP  RH WIND       PRES   REMARKS
CAPE GIRARDEAU CLOUDY    74  68  81 S10       30.05F
6HR MIN TEMP:  69; 6HR MAX TEMP:  75;

FARMINGTON     PTSUNNY   79  66  65 S12       30.07S
6HR MIN TEMP:  66; 6HR MAX TEMP:  79;

POPLAR BLUFF   PTSUNNY   77  68  73 S8        30.04S
6HR MIN TEMP:  69; 6HR MAX TEMP:  77; 6HR PCP:  0.04;

WEST PLAINS    CLOUDY    77  64  64 S10       30.03S
6HR MIN TEMP:  69; 6HR MAX TEMP:  77;


$$


USA.gov is the U.S. government's official web portal to all federal, state and local government web resources and services.